Location: Schommer Observatory
(40.5200°N, 74.4500°W)
Time: 12:50:15
(UTC-05:00)

OTV 5 (USA 277) - Pass Details

Date: 11 October 2017
Orbit: 404 x 417 km, 43.0° (Epoch: 07 September)

Event Time Altitude Azimuth Distance (km) Brightness Sun altitude
Rises 18:51:53 0° 230° (SW) 2,344 ? -6.2°
Reaches altitude 10° 18:54:04 10° 222° (SW) 1,484 ? -6.6°
Maximum altitude 18:57:12 38° 153° (SSE) 655 ? -7.2°
Enters shadow 19:00:17 10° 84° (E) 1,466 ? -7.8°
